www.pogodaiklimat.ru
ПОГОДА в Майами
Время
и дата
05:53 18.01
06:53 18.01
07:53 18.01
08:53 18.01
09:53 18.01
10:53 18.01
11:53 18.01
12:53 18.01
13:53 18.01
14:53 18.01
15:53 18.01
16:53 18.01
17:53 18.01
18:53 18.01
19:53 18.01
20:53 18.01
21:53 18.01
22:53 18.01
23:53 18.01
00:53 19.01
01:53 19.01
02:53 19.01
03:53 19.01
04:53 19.01
05:53 19.01
06:53 19.01
07:53 19.01
08:53 19.01
09:53 19.01
10:53 19.01
11:53 19.01
12:53 19.01
13:53 19.01
14:53 19.01
15:53 19.01
16:53 19.01
17:53 19.01
18:53 19.01
19:53 19.01
20:53 19.01
21:53 19.01
22:53 19.01
23:53 19.01
00:53 20.01
01:53 20.01
02:53 20.01
03:53 20.01
04:53 20.01
Ветер
(напр.,м/с)
Видим. Явления Облачность Т
(С)
Тd
(С)
f
(%)
Тe
(С)
Тes
(С)
Комфортность P
(гПа)
Po
(гПа)
Тmin
(С)
Tmax
(С)
R
(мм)
R24
(мм)
S
(см)
С 1 16 км 2/2 1200 м +11.7 +9.4 86 +11 +11 1020.6 1020.2
С 1 16 км ясно +11.7 +9.4 86 +10 +10 1021.3 1020.9 +11.1 +13.9
С 1 16 км ясно +12.2 +9.4 83 +11 +11 1022.0 1021.5
С 2 16 км ясно +14.4 +8.3 67 +13 +14 1022.9 1022.5
С 1
{4}
16 км ясно +16.1 +7.8 58 +16 +18 1023.3 1022.9
С 2
{4}
16 км ясно +17.2 +6.7 50 +17 +20 1022.9 1022.2
нст 1 16 км ясно +17.8 +5.6 45 +18 +25 1022.4 1021.9
С 2 16 км ясно +19.4 +4.4 37 +20 +27 1021.4 1020.9 +11.7 +19.4
С 1 16 км ясно +19.4 +3.3 34 +20 +28 1020.7 1020.2
штиль 0 16 км ясно +20.0 +1.7 30 +20 +31 1020.4 1019.8
С 1 16 км ясно +20.6 +2.2 30 +21 +26 комфорт 1020.3 1019.8
В 2 16 км ясно +19.4 +2.8 33 +20 +21 1020.8 1020.2
СВ 2 16 км ясно +17.2 +5.0 44 +17 +17 1021.6 1021.2
СВ 1 16 км ясно +16.1 +6.7 54 +16 +16 1022.1 1021.5 +16.1 +21.1
СЗ 1 16 км ясно +15.6 +7.2 57 +16 +16 1022.4 1021.9
СЗ 1 16 км 2/2 1170 м +15.0 +6.7 58 +14 +14 1022.6 1022.2
С 2 16 км ясно +13.9 +7.2 64 +13 +13 1023.1 1022.5
С 1 16 км ясно +13.3 +7.8 69 +12 +12 1022.9 1022.2
С 1 16 км ясно +13.3 +9.4 77 +12 +12 1022.0 1021.5
С 1 16 км ясно +13.3 +9.4 77 +13 +13 1022.3 1021.9 +13.3 +16.7
С 1 16 км 5/5 1350 м +13.3 +9.4 77 +12 +12 1022.0 1021.5
С 1 16 км 5/5 1350 м +13.3 +7.8 69 +12 +12 1022.0 1021.5
штиль 0 16 км 10/10 1320 м +13.9 +9.4 74 +14 +14 1021.9 1021.2
СЗ 1 16 км 8/8 1380 м +12.8 +10.0 83 +11 +11 1021.9 1021.5
С 1 16 км 8/8 1380 м +12.8 +10.0 83 +12 +12 1022.1 1021.5
С 1 16 км 8/8 1350 м +13.3 +11.1 87 +13 +13 1022.4 1021.9 +12.8 +13.9
штиль 0 16 км 8/8 1440 м +14.4 +12.2 87 +14 +14 1022.8 1022.2
С 1 16 км 8/8 1440 м +16.7 +12.2 75 +17 +17 1023.3 1022.9
штиль 0 16 км ясно +20.0 +12.8 63 +22 +26 комфорт 1023.8 1023.2
ЮВ 2 16 км 5/5 1350 м +22.8 +10.6 46 +25 +27 комфорт 1023.6 1023.2
ЮВ 2 16 км 8/8 1410 м +22.8 +11.7 50 +25 +26 комфорт 1022.9 1022.5
В 3 16 км 8/8 1440 м +23.3 +12.8 52 +26 +27 жарко 1022.0 1021.5 +13.3 +23.9
В 2 16 км 5/5 1470 м +23.3 +11.7 48 +26 +29 жарко 1021.1 1020.5
ЮВ 1 16 км 5/5 1410 м +22.8 +12.2 51 +25 +29 комфорт 1020.9 1020.5
В 2 16 км 8/8 1230 м +23.9 +13.3 51 +26 +27 жарко 1020.7 1020.2
ЮВ 2 16 км 10/10 1140 м +22.8 +13.3 55 +26 +26 жарко 1020.9 1020.5
В 1 16 км 2/2 1800 м +21.1 +13.3 61 +23 +24 комфорт 1021.0 1020.5
штиль 0 16 км 8/8 1200 м +19.4 +13.3 68 +21 +21 комфорт 1021.2 1020.9 +19.4 +23.9
штиль 0 16 км 2/2 1950 м +18.9 +13.3 70 +20 +20 1021.3 1020.9
В 1 16 км 2/2 1950 м +18.9 +13.9 73 +20 +20 1021.2 1020.5
СВ 1 16 км 10/10 1950 м +19.4 +13.9 70 +21 +21 комфорт 1021.2 1020.9
штиль 0 16 км 8/8 1950 м +18.9 +13.9 73 +20 +20 1021.3 1020.9
СЗ 1 16 км ясно +17.2 +13.3 78 +18 +18 1020.8 1020.2
штиль 0 16 км 8/0 2400 м
[Ac]
+17.2 +13.9 81 +17 +17 1020.2 1019.8 +16.7 +20.6
штиль 0 16 км 8/0 2400 м
[Ac]
+17.2 +13.9 81 +17 +17 1019.7 1019.2
штиль 0 16 км 8/0 2400 м
[Ac]
+17.2 +13.9 81 +17 +17 1019.2 1018.8
С 1 16 км 8/8 870 м
[Ac]
+17.2 +14.4 84 +18 +18 1019.4 1018.8
штиль 0 16 км 5/2 1050 м
[Ac]
+17.2 +14.4 84 +17 +17 1019.2 1018.8
Местоположение метеостанции Opa-Locka Executive Airport: широта 25.9100 долгота -80.2831 высота над уровнем моря 3 м.
В архиве по умолчанию представлена погода в Майами за последние 1-2 суток. Обновление информации о фактической погоде в базе происходит ежечасно! Архивные данные за месяц целиком и за предыдущие месяцы Вы можете получить, выбрав интересующий диапазон дат из раскрывающегося списка и нажав кнопку "Ввод!".
Внимание! Архив погоды МЕТАР в базе сайта по станциям, не включенным в климатический монитор, хранится не более 60 дней. Нет смысла пытаться выбрать более раннюю дату.
*Определитесь, кто Вы:
Внимание! Время в таблицах - местное (без учета летнего времени). Для получения всемирного времени необходимо вычесть поправку, которая равна -5 ч.
Смотрите также архив погоды в соседних городах и на ближайших метеорологических станциях:
Партнеры нашего сайта:      
Пояснения к столбцам:
  • Ветер - указаны скорость ветра в м/с - средняя за 10 мин, порывы в срок и между сроками (в фигурных скобках) и направление, откуда дует ветер: С - северный,
  • СВ - северо-восточный, В - восточный, ЮВ - юго-восточный, Ю - южный, ЮЗ - юго-западный, З - западный, СЗ - северо-западный.
  • Видимость - горизонтальная дальность видимости в метрах или километрах. При видимости от 1 до 10 км при отсутствии осадков обычно наблюдается дымка, при ухудшении видимости до 1 км и менее - туман. В сухую погоду видимость может ухудшаться дымом, пылью или мглою.
  • Явления - указаны атмосферные явления, наблюдавшиеся в срок или в последний час перед сроком; фигурными скобками обозначены явления, наблюдавшиеся между сроками (за 1-3 часа до срока); квадратными скобками обозначены град или гололедные отложения с указанием их диаметра в мм.
  • Облачность - указаны через наклонную черту общая и нижняя облачность в баллах и высота нижней границы облаков в метрах; квадратными скобками обозначены формы облаков: Ci - перистые, Cs - перисто-слоистые, Cc - перисто-кучевые, Ac - высококучевые, As - высокослоистые, Sc - слоисто-кучевые, Ns - слоисто-дождевые, Cu - кучевые, Cb - кучево-дождевые. Подробнее классификацию облаков см. в Атласе облаков (PDF).
  • T - Температура воздуха - температура, измеренная на высоте 2 м над землей.
  • Td - Температура точки росы - температура, при понижении до которой содержащийся в воздухе водяной пар достигнет насыщения.
  • f - Относительная влажность воздуха - влажноcть воздуха, измеренная на высоте 2 м над землей.
  • Te - Эффективная температура - температура, которую ощущает одетый по сезону человек в тени. Характеристика душности погоды. При расчете учитывается влияние влажности воздуха и скорости ветра на теплоощущения человека.
  • Tes - Эффективная температура на солнце - температура, которую ощущает человек, с поправкой на солнечный нагрев. Характеристика знойности погоды. Зависит от высоты солнца над горизонтом, облачности и скорости ветра. Ночью, в пасмурную погоду, а также при ветре 12 м/с и более поправка равна нулю.
  • P - Атмосферное давление - приведенное к уровню моря атмосферное давление.
  • Po - Атмосферное давление - измеренное на уровне метеостанции атмосферное давление.
  • Tmin - Минимальная температура - минимум температуры воздуха на высоте 2 м над землей.
  • Tmax - Максимальная температура - максимум температуры воздуха на высоте 2 м над землей.
  • R - Количество осадков - Количество выпавших осадков за период времени, мм. При наведении курсора мыши на число - период времени, за который выпало указанное количество осадков.
  • R24 - Количество осадков - Количество выпавших осадков за 24 часа, мм.
  • S - Снежный покров - Высота снежного покрова, см. При наведении курсора мыши на число - состояние снежного покрова и степень покрытия местности в баллах.